| time (UTC) | temp C | wind direction | speed KPH | gust KPH | rain 1hr cm | rain 24hr cm | rain mn cm | humidity % | barometer mb |
| 20260504050523 | 12 | 232 | 9.7 | 20.9 | 0.00 | 0.00 | 0.00 | 61 | 1007.6 |
| 20260504045523 | 11 | 239 | 8.0 | 19.3 | 0.00 | 0.00 | 0.00 | 65 | 1007.7 |
| 20260504045023 | 10 | 242 | 4.8 | 11.3 | 0.00 | 0.00 | 0.00 | 68 | 1007.6 |
| 20260504044539 | 10 | 229 | 3.2 | 8.0 | 0.00 | 0.00 | 0.00 | 72 | 1007.7 |
| 20260504044023 | 10 | 220 | 0.0 | 4.8 | 0.00 | 0.00 | 0.00 | 75 | 1007.7 |
| 20260504043531 | 9 | 0 | 0.0 | 0.0 | 0.00 | 0.00 | 0.00 | 77 | 1007.6 |
| 20260504043042 | 9 | 0 | 0.0 | 0.0 | 0.00 | 0.00 | 0.00 | 76 | 1007.7 |
| 20260504042523 | 9 | 0 | 0.0 | 0.0 | 0.00 | 0.00 | 0.00 | 78 | 1007.7 |
| 20260504042023 | 9 | 0 | 0.0 | 0.0 | 0.00 | 0.00 | 0.00 | 79 | 1007.7 |
| 20260504041541 | 8 | 0 | 0.0 | 0.0 | 0.00 | 0.00 | 0.00 | 79 | 1007.8 |
| 20260504041023 | 8 | 0 | 0.0 | 0.0 | 0.00 | 0.00 | 0.00 | 81 | 1007.8 |
| 20260504040523 | 8 | 0 | 0.0 | 0.0 | 0.00 | 0.00 | 0.00 | 82 | 1007.7 |
| 20260504040045 | 8 | 0 | 0.0 | 0.0 | 0.00 | 0.00 | 0.00 | 82 | 1007.8 |
| 20260504035528 | 8 | 0 | 0.0 | 0.0 | 0.00 | 0.00 | 0.00 | 83 | 1007.8 |
| 20260504035024 | 8 | 0 | 0.0 | 0.0 | 0.00 | 0.00 | 0.00 | 82 | 1007.7 |
| 20260504034553 | 8 | 0 | 0.0 | 0.0 | 0.00 | 0.00 | 0.00 | 82 | 1007.6 |
| 20260504034022 | 8 | 0 | 0.0 | 0.0 | 0.00 | 0.00 | 0.00 | 82 | 1007.8 |
| 20260504033522 | 8 | 0 | 0.0 | 0.0 | 0.00 | 0.00 | 0.00 | 82 | 1007.8 |
| 20260504033051 | 9 | 0 | 0.0 | 0.0 | 0.00 | 0.00 | 0.00 | 82 | 1007.8 |
| 20260504032524 | 9 | 0 | 0.0 | 0.0 | 0.00 | 0.00 | 0.00 | 82 | 1007.9 |
| 20260504032024 | 9 | 0 | 0.0 | 0.0 | 0.00 | 0.00 | 0.00 | 81 | 1008.0 |
| 20260504031556 | 9 | 0 | 0.0 | 0.0 | 0.00 | 0.00 | 0.00 | 80 | 1007.9 |
| 20260504031023 | 9 | 0 | 0.0 | 0.0 | 0.00 | 0.00 | 0.00 | 81 | 1008.1 |
| 20260504030523 | 9 | 0 | 0.0 | 0.0 | 0.00 | 0.00 | 0.00 | 79 | 1008.1 |
| 20260504030052 | 9 | 0 | 0.0 | 0.0 | 0.00 | 0.00 | 0.00 | 79 | 1008.1 |
| 20260504025524 | 9 | 0 | 0.0 | 0.0 | 0.00 | 0.00 | 0.00 | 79 | 1008.2 |
| 20260504025024 | 9 | 0 | 0.0 | 0.0 | 0.00 | 0.00 | 0.00 | 78 | 1008.2 |
| 20260504024542 | 9 | 0 | 0.0 | 0.0 | 0.00 | 0.00 | 0.00 | 78 | 1008.2 |
| 20260504024024 | 9 | 0 | 0.0 | 0.0 | 0.00 | 0.00 | 0.00 | 78 | 1008.3 |
| 20260504023524 | 9 | 0 | 0.0 | 0.0 | 0.00 | 0.00 | 0.00 | 77 | 1008.3 |
| 20260504023044 | 9 | 0 | 0.0 | 0.0 | 0.00 | 0.00 | 0.00 | 76 | 1008.4 |
| 20260504022525 | 10 | 0 | 0.0 | 0.0 | 0.00 | 0.00 | 0.00 | 77 | 1008.3 |
| 20260504022022 | 10 | 0 | 0.0 | 0.0 | 0.00 | 0.00 | 0.00 | 76 | 1008.6 |
| 20260504021543 | 10 | 0 | 0.0 | 0.0 | 0.00 | 0.00 | 0.00 | 76 | 1008.6 |
| 20260504021023 | 10 | 0 | 0.0 | 4.8 | 0.00 | 0.00 | 0.00 | 75 | 1008.5 |
| 20260504020525 | 10 | 0 | 0.0 | 6.4 | 0.00 | 0.00 | 0.00 | 75 | 1008.5 |
| 20260504020041 | 10 | 0 | 3.2 | 8.0 | 0.00 | 0.00 | 0.00 | 75 | 1008.5 |
| 20260504015523 | 10 | 196 | 4.8 | 8.0 | 0.00 | 0.00 | 0.00 | 76 | 1008.6 |
| 20260504015026 | 10 | 238 | 3.2 | 6.4 | 0.00 | 0.00 | 0.00 | 77 | 1008.6 |
| 20260504014539 | 10 | 0 | 0.0 | 0.0 | 0.00 | 0.00 | 0.00 | 77 | 1008.8 |
| 20260504014026 | 10 | 0 | 0.0 | 0.0 | 0.00 | 0.00 | 0.00 | 76 | 1008.8 |
| 20260504013524 | 10 | 0 | 0.0 | 0.0 | 0.00 | 0.00 | 0.00 | 76 | 1008.9 |
| 20260504013042 | 10 | 0 | 0.0 | 4.8 | 0.00 | 0.00 | 0.00 | 77 | 1009.0 |
| 20260504012629 | 10 | 0 | 0.0 | 9.7 | 0.00 | 0.00 | 0.00 | 77 | 1009.1 |
| 20260504012025 | 10 | 269 | 1.6 | 9.7 | 0.00 | 0.00 | 0.00 | 76 | 1009.0 |
| 20260504011545 | 10 | 270 | 4.8 | 14.5 | 0.00 | 0.00 | 0.00 | 76 | 1009.1 |
| 20260504011027 | 10 | 265 | 3.2 | 14.5 | 0.00 | 0.00 | 0.00 | 76 | 1008.9 |
| 20260504010523 | 10 | 257 | 4.8 | 14.5 | 0.00 | 0.00 | 0.00 | 76 | 1009.1 |
| 20260504010043 | 10 | 259 | 4.8 | 14.5 | 0.00 | 0.00 | 0.00 | 75 | 1009.1 |
| 20260504005523 | 10 | 285 | 8.0 | 14.5 | 0.00 | 0.00 | 0.00 | 74 | 1009.3 |
| 20260504005023 | 10 | 257 | 8.0 | 17.7 | 0.00 | 0.00 | 0.00 | 74 | 1009.5 |
| 20260504004541 | 10 | 243 | 8.0 | 20.9 | 0.00 | 0.00 | 0.00 | 72 | 1009.4 |
| 20260504004023 | 10 | 296 | 11.3 | 25.7 | 0.00 | 0.00 | 0.00 | 71 | 1009.4 |
| 20260504003523 | 11 | 241 | 11.3 | 25.7 | 0.00 | 0.00 | 0.00 | 70 | 1009.2 |
| 20260504003043 | 11 | 268 | 9.7 | 19.3 | 0.00 | 0.00 | 0.00 | 70 | 1009.2 |
| 20260504002527 | 11 | 288 | 9.7 | 22.5 | 0.00 | 0.00 | 0.00 | 69 | 1009.0 |
| 20260504002024 | 11 | 268 | 12.9 | 27.4 | 0.00 | 0.00 | 0.00 | 68 | 1008.9 |
| 20260504001538 | 11 | 257 | 12.9 | 40.2 | 0.00 | 0.00 | 0.00 | 68 | 1008.9 |
| 20260504001025 | 11 | 244 | 16.1 | 40.2 | 0.00 | 0.00 | 0.00 | 66 | 1008.9 |
| 20260504000522 | 11 | 288 | 19.3 | 40.2 | 0.00 | 0.00 | 0.00 | 64 | 1009.0 |
| 20260504000104 | 12 | 254 | 19.3 | 37.0 | 0.00 | 0.00 | 0.00 | 60 | 1008.9 |
| 20260503235524 | 12 | 254 | 14.5 | 37.0 | 0.00 | 0.00 | 0.00 | 56 | 1008.8 |
| 20260503235024 | 12 | 259 | 19.3 | 37.0 | 0.00 | 0.00 | 0.00 | 55 | 1008.6 |
| 20260503234543 | 12 | 315 | 16.1 | 30.6 | 0.00 | 0.00 | 0.00 | 54 | 1008.7 |
| 20260503234024 | 12 | 240 | 12.9 | 30.6 | 0.00 | 0.00 | 0.00 | 54 | 1008.5 |
| 20260503233525 | 12 | 270 | 12.9 | 41.8 | 0.00 | 0.00 | 0.00 | 54 | 1008.3 |
| 20260503233042 | 12 | 285 | 17.7 | 41.8 | 0.00 | 0.00 | 0.00 | 56 | 1008.2 |
| 20260503232525 | 10 | 257 | 11.3 | 24.1 | 0.00 | 0.00 | 0.00 | 60 | 1008.1 |
| 20260503232023 | 10 | 235 | 3.2 | 9.7 | 0.00 | 0.00 | 0.00 | 65 | 1008.2 |
| 20260503231541 | 10 | 0 | 0.0 | 0.0 | 0.00 | 0.00 | 0.00 | 65 | 1008.2 |
| 20260503231026 | 9 | 0 | 0.0 | 0.0 | 0.00 | 0.00 | 0.00 | 64 | 1008.1 |
| 20260503230525 | 9 | 0 | 0.0 | 0.0 | 0.00 | 0.00 | 0.00 | 63 | 1008.1 |
| 20260503230041 | 9 | 0 | 0.0 | 4.8 | 0.00 | 0.00 | 0.00 | 65 | 1008.1 |
| 20260503225523 | 9 | 0 | 0.0 | 4.8 | 0.00 | 0.00 | 0.00 | 64 | 1008.1 |
| 20260503225025 | 9 | 150 | 0.0 | 6.4 | 0.00 | 0.00 | 0.00 | 65 | 1008.1 |
| 20260503224536 | 9 | 0 | 3.2 | 6.4 | 0.00 | 0.00 | 0.00 | 64 | 1008.0 |
| 20260503224023 | 9 | 109 | 3.2 | 9.7 | 0.00 | 0.00 | 0.00 | 66 | 1008.2 |
| 20260503223523 | 9 | 104 | 3.2 | 9.7 | 0.00 | 0.00 | 0.00 | 67 | 1008.2 |
| 20260503223047 | 9 | 92 | 4.8 | 8.0 | 0.00 | 0.00 | 0.00 | 67 | 1008.6 |
| 20260503222526 | 9 | 78 | 3.2 | 8.0 | 0.00 | 0.00 | 0.00 | 65 | 1008.8 |
| 20260503222112 | 9 | 92 | 1.6 | 6.4 | 0.00 | 0.00 | 0.00 | 65 | 1008.8 |
| 20260503221542 | 9 | 65 | 3.2 | 6.4 | 0.00 | 0.00 | 0.00 | 66 | 1008.9 |
| 20260503221023 | 9 | 0 | 0.0 | 4.8 | 0.00 | 0.00 | 0.00 | 65 | 1009.2 |
| 20260503220523 | 9 | 0 | 0.0 | 6.4 | 0.00 | 0.00 | 0.00 | 66 | 1009.3 |
| 20260503220046 | 8 | 0 | 3.2 | 6.4 | 0.00 | 0.00 | 0.00 | 66 | 1009.1 |
| 20260503215523 | 8 | 46 | 4.8 | 6.4 | 0.00 | 0.00 | 0.00 | 66 | 1008.9 |
| 20260503215023 | 8 | 53 | 3.2 | 6.4 | 0.00 | 0.00 | 0.00 | 65 | 1008.9 |
| 20260503214541 | 8 | 80 | 3.2 | 6.4 | 0.00 | 0.00 | 0.00 | 64 | 1008.6 |
| 20260503214024 | 8 | 56 | 3.2 | 6.4 | 0.00 | 0.00 | 0.00 | 66 | 1008.6 |
| 20260503213524 | 8 | 28 | 3.2 | 8.0 | 0.00 | 0.00 | 0.00 | 66 | 1008.6 |
| 20260503213040 | 8 | 72 | 3.2 | 8.0 | 0.00 | 0.00 | 0.00 | 64 | 1008.4 |
| 20260503212522 | 9 | 61 | 4.8 | 8.0 | 0.00 | 0.00 | 0.00 | 64 | 1008.3 |
| 20260503212024 | 9 | 47 | 4.8 | 8.0 | 0.00 | 0.00 | 0.00 | 67 | 1008.2 |
| 20260503211540 | 9 | 49 | 4.8 | 8.0 | 0.00 | 0.00 | 0.00 | 64 | 1008.1 |
| 20260503211024 | 9 | 67 | 3.2 | 9.7 | 0.00 | 0.00 | 0.00 | 66 | 1008.3 |
| 20260503210523 | 8 | 54 | 3.2 | 9.7 | 0.00 | 0.00 | 0.00 | 65 | 1008.7 |
| 20260503210039 | 8 | 42 | 4.8 | 9.7 | 0.00 | 0.00 | 0.00 | 65 | 1008.7 |
| 20260503205524 | 8 | 71 | 4.8 | 9.7 | 0.00 | 0.00 | 0.00 | 65 | 1008.8 |
| 20260503205023 | 8 | 49 | 6.4 | 9.7 | 0.00 | 0.00 | 0.00 | 62 | 1008.7 |
| 20260503204543 | 8 | 55 | 4.8 | 9.7 | 0.00 | 0.00 | 0.00 | 62 | 1008.8 |
| 20260503204022 | 8 | 47 | 6.4 | 9.7 | 0.00 | 0.00 | 0.00 | 63 | 1008.7 |
| 20260503203530 | 8 | 59 | 4.8 | 12.9 | 0.00 | 0.00 | 0.00 | 64 | 1008.7 |
| 20260503203044 | 8 | 58 | 6.4 | 12.9 | 0.00 | 0.00 | 0.00 | 63 | 1009.0 |
| 20260503202523 | 8 | 82 | 3.2 | 12.9 | 0.00 | 0.00 | 0.00 | 64 | 1009.1 |
| 20260503202026 | 8 | 75 | 6.4 | 12.9 | 0.00 | 0.00 | 0.00 | 62 | 1009.1 |
| 20260503201542 | 8 | 42 | 6.4 | 9.7 | 0.00 | 0.00 | 0.00 | 59 | 1008.9 |
| 20260503201023 | 9 | 51 | 6.4 | 9.7 | 0.00 | 0.00 | 0.00 | 57 | 1009.1 |
| 20260503200525 | 9 | 47 | 4.8 | 12.9 | 0.00 | 0.00 | 0.00 | 61 | 1009.2 |
| 20260503200042 | 9 | 71 | 4.8 | 12.9 | 0.00 | 0.00 | 0.00 | 59 | 1009.2 |
| 20260503195523 | 8 | 48 | 6.4 | 14.5 | 0.00 | 0.00 | 0.00 | 58 | 1009.2 |
| 20260503195023 | 8 | 43 | 8.0 | 14.5 | 0.00 | 0.00 | 0.00 | 57 | 1009.4 |
| 20260503194541 | 9 | 70 | 8.0 | 14.5 | 0.00 | 0.00 | 0.00 | 56 | 1009.5 |
| 20260503194023 | 10 | 42 | 6.4 | 12.9 | 0.00 | 0.00 | 0.00 | 58 | 1009.6 |
| 20260503193525 | 10 | 60 | 8.0 | 11.3 | 0.00 | 0.00 | 0.00 | 53 | 1009.8 |
| 20260503193041 | 11 | 21 | 4.8 | 14.5 | 0.00 | 0.00 | 0.00 | 57 | 1009.9 |
| 20260503192524 | 11 | 24 | 6.4 | 14.5 | 0.00 | 0.00 | 0.00 | 54 | 1009.9 |
| 20260503192027 | 11 | 5 | 8.0 | 16.1 | 0.00 | 0.00 | 0.00 | 53 | 1010.0 |
| 20260503191535 | 11 | 49 | 4.8 | 16.1 | 0.00 | 0.00 | 0.00 | 57 | 1010.0 |
| 20260503191021 | 11 | 312 | 8.0 | 16.1 | 0.00 | 0.00 | 0.00 | 53 | 1010.2 |
| 20260503190521 | 10 | 339 | 6.4 | 16.1 | 0.00 | 0.00 | 0.00 | 56 | 1010.3 |
| 20260503190041 | 10 | 11 | 6.4 | 16.1 | 0.00 | 0.00 | 0.00 | 53 | 1010.3 |
| 20260503185521 | 10 | 299 | 4.8 | 12.9 | 0.00 | 0.00 | 0.00 | 53 | 1010.3 |
| 20260503185021 | 10 | 28 | 6.4 | 12.9 | 0.00 | 0.00 | 0.00 | 55 | 1010.4 |
| 20260503184600 | 10 | 9 | 3.2 | 14.5 | 0.00 | 0.00 | 0.00 | 55 | 1010.5 |
| 20260503184022 | 10 | 37 | 4.8 | 14.5 | 0.00 | 0.00 | 0.00 | 56 | 1010.5 |
| 20260503183522 | 10 | 32 | 4.8 | 12.9 | 0.00 | 0.00 | 0.00 | 56 | 1010.6 |
| 20260503183044 | 10 | 43 | 4.8 | 12.9 | 0.00 | 0.00 | 0.00 | 62 | 1010.7 |
| 20260503182521 | 9 | 49 | 6.4 | 12.9 | 0.00 | 0.00 | 0.00 | 60 | 1010.6 |
| 20260503182021 | 8 | 61 | 6.4 | 11.3 | 0.00 | 0.00 | 0.00 | 61 | 1010.6 |
| 20260503181541 | 8 | 80 | 4.8 | 11.3 | 0.00 | 0.00 | 0.00 | 63 | 1010.7 |
| 20260503181024 | 8 | 61 | 3.2 | 11.3 | 0.00 | 0.00 | 0.00 | 62 | 1011.0 |
| 20260503180521 | 8 | 57 | 6.4 | 11.3 | 0.00 | 0.00 | 0.00 | 60 | 1011.0 |
| 20260503180040 | 8 | 31 | 6.4 | 12.9 | 0.00 | 0.00 | 0.00 | 60 | 1011.0 |
| 20260503175521 | 8 | 42 | 6.4 | 14.5 | 0.00 | 0.00 | 0.00 | 59 | 1011.0 |
| 20260503175021 | 8 | 46 | 6.4 | 14.5 | 0.00 | 0.00 | 0.00 | 56 | 1011.0 |
| 20260503174535 | 8 | 65 | 6.4 | 14.5 | 0.00 | 0.00 | 0.00 | 56 | 1011.1 |
| 20260503174023 | 8 | 66 | 6.4 | 14.5 | 0.00 | 0.00 | 0.00 | 56 | 1010.9 |
| 20260503173521 | 8 | 63 | 4.8 | 14.5 | 0.00 | 0.00 | 0.00 | 57 | 1011.1 |
| 20260503173044 | 8 | 60 | 9.7 | 16.1 | 0.00 | 0.00 | 0.00 | 54 | 1011.1 |
| 20260503172520 | 8 | 79 | 8.0 | 16.1 | 0.00 | 0.00 | 0.00 | 56 | 1011.2 |
| 20260503172021 | 8 | 80 | 8.0 | 16.1 | 0.00 | 0.00 | 0.00 | 52 | 1011.2 |
| 20260503171603 | 8 | 13 | 8.0 | 16.1 | 0.00 | 0.00 | 0.00 | 55 | 1011.2 |
| 20260503171021 | 8 | 48 | 11.3 | 17.7 | 0.00 | 0.00 | 0.00 | 52 | 1011.1 |
| 20260503170521 | 8 | 41 | 9.7 | 17.7 | 0.00 | 0.00 | 0.00 | 55 | 1011.0 |
| 20260503150523 | 9 | 5 | 8.0 | 16.1 | 0.00 | 0.00 | 0.00 | 51 | 1012.6 |
| 20260503131139 | 7 | 292 | 4.8 | 14.5 | 0.00 | 0.00 | 0.00 | 55 | 1013.3 |
| 20260503130522 | 6 | 284 | 3.2 | 16.1 | 0.00 | 0.00 | 0.00 | 56 | 1013.5 |
| 20260503110523 | 2 | 267 | 1.6 | 9.7 | 0.00 | 0.00 | 0.00 | 83 | 1013.2 |
| 20260503081539 | 3 | 273 | 6.4 | 11.3 | 0.00 | 0.00 | 0.00 | 78 | 1013.1 |
| 20260503081026 | 3 | 252 | 4.8 | 11.3 | 0.00 | 0.00 | 0.00 | 78 | 1013.1 |
| 20260503080523 | 3 | 252 | 3.2 | 9.7 | 0.00 | 0.00 | 0.00 | 78 | 1013.2 |
| 20260503072525 | 3 | 259 | 1.6 | 9.7 | 0.00 | 0.00 | 0.00 | 76 | 1012.6 |
| 20260503072024 | 4 | 258 | 3.2 | 9.7 | 0.00 | 0.00 | 0.00 | 76 | 1012.7 |
| 20260503071600 | 4 | 257 | 3.2 | 11.3 | 0.00 | 0.00 | 0.00 | 75 | 1012.7 |
| 20260503071022 | 4 | 259 | 4.8 | 11.3 | 0.00 | 0.00 | 0.00 | 75 | 1012.7 |
| 20260503070523 | 4 | 273 | 4.8 | 11.3 | 0.00 | 0.00 | 0.00 | 75 | 1012.7 |
| 20260503055022 | 4 | 247 | 3.2 | 6.4 | 0.00 | 0.03 | 0.00 | 76 | 1012.8 |
| 20260503054555 | 4 | 267 | 1.6 | 4.8 | 0.00 | 0.03 | 0.00 | 76 | 1012.8 |